Regional Weather Roundup
Issued by NWS Newport/Morehead, NC

Current Version | Previous Version | Graphics & Text | Print | Product List | Glossary On
Versions: 1 2 3 4 5 6 7 8 9 10 11 12 13 14 15 16 17 18 19 20 21 22 23 24 25 26 27 28 29 30 31 32 33 34 35 36 37 38 39 40 41 42 43 44 45 46 47 48 49 50
000 ASUS42 KMHX 271513 RWRMHX WEATHER ROUNDUP FOR EASTERN NORTH CAROLINA NATIONAL WEATHER SERVICE NEWPORT/MOREHEAD CITY NC 1100 AM EDT SAT AUG 27 2016 NOTE: "FAIR" INDICATES FEW OR NO CLOUDS BELOW 12,000 FEET WITH NO SIGNIFICANT WEATHER AND/OR OBSTRUCTIONS TO VISIBILITY NCZ015>017-031-032-045>047-102-103-271600- NORTH COAST CITY SKY/WX TMP DP RH WIND PRES REMARKS EDENTON SUNNY 88 74 63 N5 30.12F ELIZABETH CITY SUNNY 88 76 67 N5 30.12S KITTY HAWK MOSUNNY 89 80 75 N6 30.11S HX 105 MANTEO SUNNY 84 77 79 N7 30.12S $$ NCZ045>047-081-094-103-104-271600- CENTRAL COAST CITY SKY/WX TMP DP RH WIND PRES REMARKS FRISCO SUNNY 85 75 72 NW5 30.11S $$ NCZ095-097-098-100-101-271600- SOUTHERN COAST CITY SKY/WX TMP DP RH WIND PRES REMARKS BEAUFORT SUNNY 88 74 63 VRB7 30.11S CEDAR ISLAND NOT AVBL JACKSONVILLE SUNNY 87 72 60 E6 30.11S PINEY ISLAND NOT AVBL WILMINGTON SUNNY 86 74 67 NE7 30.11S $$ NCZ011>013-027>030-043-044-078>080-089-090>093-098-271600- COASTAL PLAIN CITY SKY/WX TMP DP RH WIND PRES REMARKS AHOSKIE SUNNY 85 76 75 CALM 30.12F CLINTON SUNNY 87 75 67 CALM 30.12F ELIZABETHTOWN SUNNY 86 73 64 CALM 30.12S GOLDSBORO MOSUNNY 88 75 64 CALM 30.11S GREENVILLE MOSUNNY 88 73 62 CALM 30.13F HAVELOCK SUNNY 88 73 61 CALM 30.12S KENANSVILLE SUNNY 86 73 66 CALM 30.13S KINSTON SUNNY 88 73 62 NW3 30.13S NEW BERN PTSUNNY 85 72 65 E3 30.13S RICHLANDS SUNNY 86 74 67 CALM 30.12F ROCKY MOUNT MOSUNNY 87 77 72 E6 30.13R WASHINGTON SUNNY 85 74 69 W3 30.12S WHITEVILLE SUNNY 86 72 63 CALM 30.11S $$ AMZ130-135-150-152-154-156-158-170-250-252-270-ANZ085-086-088-633-658-670-271600- MARINE OBSERVATIONS STATION/POSITION TIME TEMP WIND PRES WAVE SWELL AIR SEA DIR/SP/G HT/PER HT/PER (UTC) (F) (DEG/KT/KT) (MB) (FT/S) (FT/S) CHESAPEAKE LIGHT NOT AVBL 64 E VA BEACH 1450 80 80 10/ 8/ 10 1019.4 2/ 7 2/ 7 DUCK 1400 81 62 350/ 5/ 5 1019.2 2 E DUCK 1411 79 N/A 2/10 2/11 OREGON INLET 1400 83 82 270/ 5/ 6 1019.7 13E OREGON INLT 1500 81 N/A 2/ 9 2/ 9 HATTERAS CG 1400 81 83 310/ 8/ 9 1019.4 DIAMOND BUOY 1450 82 85 360/ 6/ 6 1019.7 2/10 2/10 CAPE LOOKOUT 1500 83 50/ 5/ 5 1019.4 BEAUFORT LAB 1400 83 81 350/ 7/ 8 1019.1 30 SE NEW RVR IN 1408 83 84 40/ 8/ 12 1019.6 30 SE NEW RVR IN 1455 84 N/A 4/ 8 2/11 27 SE WRIGHTSVLE 1408 83 84 40/ 8/ 10 1019.8 5 SE WRIGHTSVLE 1408 81 83 30/ 6/ 8 1020.8 225 S CAPE HAT 1450 83 84 50/ 14/ 16 1018.1 4/ 8 3/ 8 41 SE CHARLESTON 1450 83 83 60/ 14/ 16 1018.3 5/10 3/10 $$

USA.gov is the U.S. government's official web portal to all federal, state and local government web resources and services.